Location: LDNL
(36.4545°S, 141.6685°E)
Time: 12:46:48
(UTC+10:00)

Tiros 1 despin weight - Pass Details

Date: 09 August 2022
Orbit: 590 x 639 km, 48.2° (Epoch: 23 September)

Event Time Altitude Azimuth Distance (km) Brightness Sun altitude
Rises 08:51:32 0° 243° (WSW) 2,961 ? 15.1°
Reaches altitude 10° 08:54:04 10° 252° (WSW) 2,044 ? 15.5°
Maximum altitude 08:58:16 33° 315° (NW) 1,083 ? 16.2°
Drops below altitude 10° 09:02:25 10° 18° (NNE) 2,006 ? 16.9°
Sets 09:04:53 0° 28° (NNE) 2,899 ? 17.3°
